Flag for Austria Weather past 2 weeks in Klagenfurt, Carinthia, Austria

Now
77 °F

Passing clouds.


Feels Like: 79 °F
Forecast: 61 / 79 °F
Wind: 7 mph from Southeast

Location: Klagenfurt-Flughafen

Current Time: Aug 1, 2014 at 2:51:25 PM

Latest Report: Aug 1, 2014 at 1:50 PM


Visibility: N/A

Pressure: 29.89 "Hg

Humidity: 57%

Dew point: 61 °F

Location of KlagenfurtLocation

Historic Weather in Klagenfurt — Graph

°F

Klagenfurt temperature yesterday

Maximum temperature yesterday: 72 °F (at 3:20 PM)
Minimum temperature yesterday: 63 °F (at 3:20 AM)
Average temperature yesterday: 66 °F

Past Weeks' High & Low Weather Summary

 TemperatureHumidityPressure
High90 °F (Jul 20, 3:20 PM)100% (Jul 18, 4:20 AM)30.18 "Hg (Jul 18, 4:20 AM)
Low55 °F (Jul 24, 4:50 AM)32% (Jul 24, 1:50 PM)29.74 "Hg (Jul 30, 3:50 AM)
Average68 °F78%29.93 "Hg
* Reported Jul 17 1:20 PM — Aug 1 1:20 PM, Klagenfurt, Weather by CustomWeather, © 2014

Note: Actual official high and low records may vary slightly from our data, if they occured in-between our weather recording intervals... More about our weather records

Advertising

Klagenfurt weather history for previous 24 hours

 ConditionsComfort  
Time TempWeatherWind HumidityBarometerVisibility
1:20 PM
Aug 1
77 °FPassing clouds.6 mph57%29.89 "HgN/A
12:50 PM77 °FPassing clouds.6 mph57%29.89 "HgN/A
12:20 PM75 °FPassing clouds.3 mph65%29.89 "HgN/A
11:50 AM73 °FPassing clouds.3 mph61%29.92 "HgN/A
11:20 AM73 °FPassing clouds.3 mph69%29.92 "HgN/A
10:50 AM72 °FPassing clouds.3 mph73%29.92 "HgN/A
10:20 AM70 °FScattered clouds.3 mph73%29.92 "HgN/A
9:50 AM68 °FScattered clouds.5 mph83%29.92 "HgN/A
9:20 AM66 °FScattered clouds.3 mph88%29.92 "HgN/A
8:50 AM66 °FBroken clouds.3 mph88%29.92 "HgN/A
8:20 AM66 °FBroken clouds.2 mph88%29.92 "HgN/A
7:50 AM66 °FBroken clouds.5 mph88%29.92 "HgN/A
7:20 AM64 °FBroken clouds.2 mph88%29.92 "HgN/A
6:50 AM64 °FPartly sunny.5 mph94%29.92 "HgN/A
6:20 AM64 °FPassing clouds.3 mph88%29.92 "Hg5 mi
5:50 AM64 °FPassing clouds.5 mph94%29.92 "Hg5 mi
5:20 AM63 °FPassing clouds.5 mph100%29.92 "Hg5 mi
4:50 AM64 °FPassing clouds.3 mph94%29.92 "Hg5 mi
4:20 AM64 °FPassing clouds.2 mph94%29.92 "Hg5 mi
3:50 AM64 °FPassing clouds.3 mph100%29.92 "Hg5 mi
3:20 AM64 °FPassing clouds.1 mph100%29.92 "HgN/A
2:50 AM66 °FPassing clouds.3 mph88%29.92 "HgN/A
2:20 AM66 °FPartly cloudy.2 mph94%29.95 "HgN/A
1:50 AM66 °FPassing clouds.1 mph94%29.95 "HgN/A
1:20 AM66 °FPassing clouds.1 mph100%29.95 "HgN/A
12:50 AM66 °FPartly cloudy.1 mph94%29.95 "HgN/A
12:20 AM66 °FPartly cloudy.2 mph94%29.95 "HgN/A
11:50 PM
Jul 31
66 °FPassing clouds.1 mph100%29.95 "HgN/A
11:20 PM66 °FPassing clouds.1 mph100%29.95 "HgN/A
10:50 PM66 °FPassing clouds.2 mph94%29.95 "HgN/A
10:20 PM66 °FPassing clouds.1 mph100%29.95 "HgN/A
9:50 PM66 °FPassing clouds.1 mph100%29.92 "HgN/A
9:20 PM66 °FPartly sunny.2 mph100%29.92 "HgN/A
8:50 PM66 °FBroken clouds.1 mph100%29.92 "HgN/A
8:20 PM68 °FPartly sunny.1 mph94%29.92 "HgN/A
7:50 PM68 °FPartly sunny.2 mph94%29.89 "HgN/A
7:20 PM68 °FSprinkles. Partly sunny.2 mph94%29.89 "HgN/A
6:50 PM70 °FPartly sunny.2 mph88%29.89 "HgN/A
6:20 PM70 °FPartly sunny.1 mph88%29.89 "HgN/A
5:50 PM70 °FPartly sunny.2 mph88%29.89 "HgN/A
5:20 PM68 °FLight rain. Partly sunny.1 mph94%29.89 "HgN/A
4:50 PM70 °FRain. Fog.2 mph83%29.89 "Hg3 mi
4:20 PM70 °FSprinkles. Partly sunny.2 mph83%29.89 "HgN/A
3:50 PM72 °FSprinkles. Partly sunny.5 mph78%29.89 "HgN/A
3:20 PM72 °FScattered showers. Partly sunny.5 mph73%29.89 "HgN/A
2:50 PM70 °FScattered showers. Broken clouds.3 mph83%29.89 "HgN/A
2:20 PM68 °FBroken clouds.5 mph88%29.89 "HgN/A
Weather by CustomWeather, © 2014

See weather overviewHow to use our weather pages